Tracking 28790 objects as of 19-Apr-2024
HD Live streaming from Space Station
objects crossing your sky now

CZ-3 DEB

Track CZ-3 DEB now!


NORAD ID: 29445
Int'l Code: 1984-035D
Perigee: 424.8 km
Apogee: 31,711.9 km
Inclination: 29.9 °
Period: 557.5 minutes
Semi major axis: 22439 km
RCS: 0.1344 m2 (medium)
Launch date: April 8, 1984
Source: People's Republic of China (PRC)
Launch site: Xichang Space Center, China (XSC)

Note: This is SATELLITE DEBRIS
Your satellite tracking list
Your tracking list is empty




NASA's NSSDC Master Catalog

Two Line Element Set (TLE):
1 29445U 84035D   24109.48860232  .00007135  00000-0  17923-1 0  9992
2 29445  29.8650 152.6925 6971494  90.0780 342.8254  2.58278052 18455
Source of the keplerian elements: AFSPC